Location: Chandolas
(44.4033°N, 4.2533°E)
Time: 12:07:37
(UTC+00:00)

Cosmos 2369 - Pass Details

Date: 25 February 2020
Orbit: 841 x 855 km, 71.0° (Epoch: 05 April)

Event Time Altitude Azimuth Distance (km) Brightness Sun altitude
Rises 05:18:04 0° 342° (NNW) 3,421 6.7 -13.3°
Reaches altitude 10° 05:20:58 10° 355° (N) 2,479 6.1 -12.8°
Maximum altitude 05:25:39 26° 50° (NE) 1,625 5.8 -11.9°
Drops below altitude 10° 05:30:17 10° 106° (ESE) 2,461 7.5 -11.1°
Sets 05:33:09 0° 119° (ESE) 3,390 8.1 -10.6°
